CZ-4C DEB, 40114

Orbit data source: Space-Track

CZ-4C DEB, 40114 is space debris in LEO originally from a launch on Sat, 09 Aug 2014 UTC launched from the Jiuquan Satellite Launch Center, China (JSC). Debris objects in space refer to the collection of defunct objects orbiting the Earth. Examples of debris include non-operational satellites, rocket bodies, and fragments generated from explosions, collisions, or faulty payload assembly.

Loading next visibility...
Identifier
40114, 2014-047F
Orbit
LEO
Country
Flag of CNCN / PRC
Related business
Manufacturer
CAST
Mission
Spacecraft
Bus & Motor
Unknown
Mass
Unknown
Launch date (UTC)
2014-08-09 (11 years ago)
Launch vehicle
Unknown
Launch site
Jiuquan Satellite Launch Center, China (JSC)
Object type
Payload
Rocket body
Debris
Shape & HBR
Unknown shape, 2.2 m
Radar Cross Section
Large (>1 m²)

Expand to show TLE details & history
Last TLE update: 15 hours ago

TLE from 15 hours ago
0 CZ-4C DEB
1 40114U 14047F   25288.80407091  .00000142  00000-0  26531-3 0  9997
2 40114  63.3824 315.9270 0368749  13.8520 347.2298 13.44359733549051
Epoch: 2025-10-15T19:17Z
TLE epoch observation values (Epoch: 2025-10-15T19:17:51.726Z)
Latitude
-0.00002°
Longitude
1.88857°
Altitude
826.661 km
Speed
7.572 km/s
True Right ascension
21h 03m 42s
True Declination
0° 00' 00"
Sunlit
Object was in daylight at epoch
Visualization orbit readout
Latitude
Unknown
Longitude
Unknown
Altitude
Unknown
Speed
Unknown
Apparent Right ascension
Unknown
Apparent Declination
Unknown
Sunlit
N/A
Visualization observer readout
Local Sidereal Time
05:00:27
Azimuth
Unknown
Elevation
Unknown
Doppler factor
Unknown
Orbital elements
Apogee altitude
1,367.37 km
Perigee altitude
816.455 km
Semi-major axis
7,470.05 km
Eccentricity
0.03687
Inclination
63.3824°
RAAN
315.927°
Arg. of periapsis
13.852°
True anomaly
346.25195°
Mean anomaly
347.2298°
Eccentric anomaly
346.74539°
Mean motion
3.36169 °/min
Orbital period
107.09 mins
BSTAR
0.00026531
Loading maneuver chart data...
Computing Atmospheric mass density...
Loading historical data...
Loading historical data...
Loading historical data...
Loading historical data...
Loading historical data...
Loading historical data...
Loading historical data...

Documentation

Showing up to 5 results
|